This is the latest recevied weather packets stored in our database for station/object EA3DJ-10. If no packets are shown the sender has not sent any weather packets the latest 10 day(s).
| Time | Temp. | Humidity | Pressure | Rain* | Wind** | Luminosity | Snow |
|---|---|---|---|---|---|---|---|
| 1777522675 | 23.33° C | 47% | 1016.3 hPa | - | - | - | - |
| 1777521475 | 23.33° C | 48% | 1016.3 hPa | - | - | - | - |
| 1777520275 | 23.33° C | 48% | 1016.3 hPa | - | - | - | - |
| 1777519074 | 23.89° C | 48% | 1016.3 hPa | - | - | - | - |
| 1777517873 | 23.89° C | 48% | 1016.3 hPa | - | - | - | - |
| 1777516673 | 23.89° C | 48% | 1016.4 hPa | - | - | - | - |
| 1777515473 | 23.89° C | 48% | 1016.3 hPa | - | - | - | - |
| 1777514273 | 23.89° C | 49% | 1016.3 hPa | - | - | - | - |
| 1777513072 | 24.44° C | 49% | 1016.5 hPa | - | - | - | - |
| 1777511872 | 24.44° C | 50% | 1016.4 hPa | - | - | - | - |
| 1777510671 | 24.44° C | 50% | 1016.5 hPa | - | - | - | - |
| 1777509471 | 24.44° C | 49% | 1016.8 hPa | - | - | - | - |
| 1777508271 | 25° C | 49% | 1016.9 hPa | - | - | - | - |
| 1777507070 | 25° C | 49% | 1016.7 hPa | - | - | - | - |
| 1777505869 | 25° C | 49% | 1016.9 hPa | - | - | - | - |
| 1777504663 | 25° C | 49% | 1016.8 hPa | - | - | - | - |
| 1777503463 | 25° C | 50% | 1016.7 hPa | - | - | - | - |
| 1777502263 | 24.44° C | 49% | 1016.8 hPa | - | - | - | - |
| 1777501063 | 24.44° C | 50% | 1016.8 hPa | - | - | - | - |
| 1777499863 | 24.44° C | 51% | 1016.7 hPa | - | - | - | - |
| 1777498663 | 23.89° C | 51% | 1016.7 hPa | - | - | - | - |
| 1777497463 | 23.33° C | 50% | 1016.7 hPa | - | - | - | - |
| 1777496263 | 23.33° C | 51% | 1016.5 hPa | - | - | - | - |
| 1777495397 | 23.33° C | 51% | 1016.4 hPa | - | - | - | - |
| 1777495063 | 23.33° C | 51% | 1016.4 hPa | - | - | - | - |
* Rain since midnight (hover to see other rain measurements)
** Current wind speed in m/s (hover to see current wind gust speed)